This demonstration page uses our WeatherBlox Daily Observations layout. Learn more.

39.29038, -76.61219

Hourly Observations for December 25, 2017

Temp ( °F °C ) Dew Point ( °F °C ) Humidity (%) Winds ( mph kmh ) Pressure ( in mb ) Visibility ( mi km ) Precip ( " mm )
12:54 am 00:54 undefined 40 4.4 36 2.2 86 86 undefined N/A 29.8 1009 N/A 0 0
1:54 am 01:54 undefined 39 3.9 36 2.2 89 89 undefined N/A 29.77 1008 N/A 0 0
2:54 am 02:54 undefined 40 4.4 36 2.2 86 86 undefined N/A 29.77 1008 N/A 0 0
3:54 am 03:54 undefined 40 4.4 36 2.2 86 86 undefined N/A 29.77 1008 N/A 0 0
4:54 am 04:54 undefined 40 4.4 30 -1.1 68 68 undefined N/A 29.77 1008 N/A 0 0
5:54 am 05:54 undefined 40 4.4 21 -6.1 47 47 undefined N/A 29.83 1010 N/A 0 0
6:54 am 06:54 undefined 38 3.3 18 -7.8 44 44 undefined N/A 29.88 1012 N/A 0 0
7:54 am 07:54 undefined 36 2.2 12 -11.1 37 37 undefined N/A 29.94 1014 N/A 0 0
8:54 am 08:54 undefined 35 1.7 13 -10.6 40 40 undefined N/A 30 1016 N/A 0 0
9:54 am 09:54 undefined 34 1.1 11 -11.7 38 38 undefined N/A 30.06 1018 N/A 0 0
10:54 am 10:54 undefined 34 1.1 11 -11.7 38 38 undefined N/A 30.09 1019 N/A 0 0
11:54 am 11:54 undefined 34 1.1 11 -11.7 38 38 undefined N/A 30.09 1019 N/A 0 0
12:54 pm 12:54 undefined 36 2.2 9 -12.8 32 32 undefined N/A 30.09 1019 N/A 0 0
1:54 pm 13:54 undefined 36 2.2 8 -13.3 31 31 undefined N/A 30.09 1019 N/A 0 0
2:54 pm 14:54 undefined 34 1.1 9 -12.8 35 35 undefined N/A 30.09 1019 N/A 0 0
3:54 pm 15:54 undefined 34 1.1 8 -13.3 34 34 undefined N/A 30.12 1020 N/A 0 0
4:54 pm 16:54 undefined 33 0.6 8 -13.3 35 35 undefined N/A 30.18 1022 N/A 0 0
5:54 pm 17:54 undefined 32 0 9 -12.8 38 38 undefined N/A 30.24 1024 N/A 0 0
6:54 pm 18:54 undefined 31 -0.6 9 -12.8 40 40 undefined N/A 30.24 1024 N/A 0 0
7:54 pm 19:54 undefined 31 -0.6 9 -12.8 40 40 undefined N/A 30.3 1026 N/A 0 0
8:54 pm 20:54 undefined 32 0 9 -12.8 38 38 undefined N/A 30.3 1026 N/A 0 0
9:54 pm 21:54 undefined 32 0 9 -12.8 38 38 undefined N/A 30.33 1027 N/A 0 0
10:54 pm 22:54 undefined 32 0 9 -12.8 38 38 undefined N/A 30.33 1027 N/A 0 0
11:54 pm 23:54 undefined 31 -0.6 5 -15 33 33 undefined N/A 30.33 1027 N/A 0 0

Powered by AerisWeather